Regional Weather Roundup
Issued by NWS Kansas City/Pleasant Hill, MO

Home | Current Version | Previous Version | Text Only | Print | Product List | Glossary On
Versions: 1 2 3 4 5 6 7 8 9 10 11 12 13 14 15 16 17 18 19 20 21 22 23 24 25 26 27 28 29 30 31 32 33 34 35 36 37 38 39 40 41 42 43 44 45 46 47 48 49 50
000
ASUS43 KEAX 270510
RWREAX

WEATHER ROUNDUP FOR EASTERN KANSAS AND NORTHWEST MISSOURI
NATIONAL WEATHER SERVICE KANSAS CITY/PLEASANT HILL MO
1100 PM CST FRI DEC 26 2014

KSZ040-057-103>105-MOZ028-029-037-043-270600-
...KANSAS CITY METROPOLITAN AREA...

CITY           SKY/WX    TMP DP  RH WIND       PRES   REMARKS
K.C. INTL      CLOUDY    37  33  85 W8        30.00R WCI  31
K.C. DOWNTOWN  CLOUDY    40  34  79 W7        30.01R
LEES SUMMIT    CLOUDY    40  37  89 W6        30.00R
OLATHE - IXD   CLOUDY    38  34  85 W8        30.02R WCI  32
OLATHE - OJC   CLOUDY    39  35  86 NW9       30.00R WCI  33
LAWRENCE       CLOUDY    37  32  82 W7        30.03S WCI  32

$$

MOZ001>008-011>017-020>025-030>033-038>040-044>046-053-054-270600-
...NORTHERN AND CENTRAL MISSOURI...

CITY           SKY/WX    TMP DP  RH WIND       PRES   REMARKS
ST. JOSEPH     CLOUDY    36  33  89 W7        30.01S WCI  30
MOSBY            N/A     39  34  81 W7        29.99S WCI  34
WARRENSBURG    CLOUDY    43  41  93 W3        29.99R
WHITEMAN AFB   DRIZZLE   52  50  93 S10       29.98R
CLINTON        CLOUDY    52  50  93 S10       30.00R
SEDALIA        CLOUDY    53  49  86 S12       29.99S
WARSAW         NOT AVBL
MARSHALL       CLOUDY    55  50  82 S9        29.98R
CHILLICOTHE      N/A     43  40  89 CALM      29.99S
MOBERLY        CLOUDY    54  46  76 S15       29.97S
KIRKSVILLE     CLOUDY    45  44  97 NE3       29.96S

$$

MOZ041-047>049-056>058-063>065-088>090-097-270600-
...EASTERN AND SOUTHERN MISSOURI...

CITY           SKY/WX    TMP DP  RH WIND       PRES   REMARKS
ST. LOUIS INTL LGT RAIN  50  44  80 S7        30.07R
SPIRIT OF STL  LGT RAIN  48  45  89 CALM      30.05S FOG
COLUMBIA       CLOUDY    50  47  89 S14       30.00S
JEFFERSON CITY CLOUDY    50  46  86 S9        30.02S
MEXICO         CLOUDY    52  50  93 S16       30.00S
HANNIBAL       CLOUDY    54  45  71 S16G23    29.98S
ROLLA          CLOUDY    45  43  93 S13       30.02S
LEBANON        CLOUDY    48  46  93 S9        30.03R
OSAGE BEACH    CLOUDY    48  45  87 S9        30.02S
SPRINGFIELD    CLOUDY    49  47  93 S12       30.03R
BRANSON        CLOUDY    50  48  93 CALM      30.06R
JOPLIN         CLOUDY    52  51  97 S10       30.02R
WEST PLAINS    CLOUDY    47  44  90 S8        30.08S

$$

IAZ060-094-KSZ022-034>040-054-083-096-NEZ052-066-093-270600-
...KANSAS...SOUTHEAST NEBRASKA AND IOWA...

CITY           SKY/WX    TMP DP  RH WIND       PRES   REMARKS
TOPEKA         LGT RAIN  38  34  85 W9        30.05R WCI  31
MANHATTAN      CLOUDY    33  31  92 W9        30.08R WCI  25
EMPORIA        LGT RAIN  34  33  96 W10       30.06R WCI  26
CHANUTE        CLOUDY    40  36  86 NW10      30.05R WCI  33
WICHITA        CLOUDY    34  28  79 NW18      30.11R WCI  23
OMAHA          LGT SNOW  32  30  92 NW10      30.03S FOG     WCI  24
LINCOLN        LGT SNOW  30  27  88 NW13      30.07R FOG     WCI  20
FALLS CITY     MIX PCPN  34  32  92 NW9       30.02R FOG     WCI  27
LAMONI         CLOUDY    35  33  92 N3        29.96S FOG
DES MOINES     DRIZZLE   35  32  88 CALM      29.97F FOG

$$



USA.gov is the U.S. government's official web portal to all federal, state and local government web resources and services.